Time,TemperatureF,DewpointF,PressureIn,WindDirection,WindDirectionDegrees,WindSpeedMPH,WindSpeedGustMPH,Humidity,HourlyPrecipIn,Conditions,Clouds,dailyrainin,SoftwareType,DateUTC
2013-10-29 00:01:00,78.1,65.0,30.16,ENE,67,9.8,16.0,65,0.00,,,0.00,Rainwise IP-100,2013-10-29 04:01:00,
2013-10-29 00:06:00,78.1,65.0,30.16,ENE,67,7.9,14.0,65,0.00,,,0.00,Rainwise IP-100,2013-10-29 04:06:00,
2013-10-29 00:11:00,78.1,65.0,30.16,ENE,67,8.6,13.0,65,0.00,,,0.00,Rainwise IP-100,2013-10-29 04:11:00,
2013-10-29 00:16:00,78.1,65.0,30.16,ENE,67,9.3,14.0,65,0.00,,,0.00,Rainwise IP-100,2013-10-29 04:16:00,
2013-10-29 00:21:00,78.1,65.0,30.16,NNE,22,11.0,14.0,65,0.00,,,0.00,Rainwise IP-100,2013-10-29 04:21:00,
2013-10-29 00:26:00,78.1,65.0,30.16,ENE,67,7.5,14.0,65,0.00,,,0.00,Rainwise IP-100,2013-10-29 04:26:00,
2013-10-29 00:31:00,78.0,65.0,30.16,NE,45,8.9,11.0,65,0.00,,,0.00,Rainwise IP-100,2013-10-29 04:31:00,
2013-10-29 00:37:00,78.0,65.0,30.16,ENE,67,5.8,15.0,64,0.00,,,0.00,Rainwise IP-100,2013-10-29 04:37:00,
2013-10-29 00:42:00,78.0,65.0,30.16,ENE,67,4.4,13.0,64,0.00,,,0.00,Rainwise IP-100,2013-10-29 04:42:00,
2013-10-29 00:47:00,78.0,65.0,30.16,NE,45,6.1,11.0,64,0.00,,,0.00,Rainwise IP-100,2013-10-29 04:47:00,
2013-10-29 00:52:00,78.0,65.0,30.16,NNE,22,6.5,13.0,64,0.00,,,0.00,Rainwise IP-100,2013-10-29 04:52:00,
2013-10-29 00:57:00,78.0,65.0,30.16,NE,45,7.5,12.0,64,0.00,,,0.00,Rainwise IP-100,2013-10-29 04:57:00,
2013-10-29 01:02:00,78.0,65.0,30.16,NE,45,7.9,12.0,64,0.00,,,0.00,Rainwise IP-100,2013-10-29 05:02:00,
2013-10-29 01:07:00,78.0,65.0,30.16,ENE,67,6.8,12.0,64,0.00,,,0.00,Rainwise IP-100,2013-10-29 05:07:00,
2013-10-29 01:13:00,78.0,65.0,30.16,ENE,67,8.6,13.0,64,0.00,,,0.00,Rainwise IP-100,2013-10-29 05:13:00,
2013-10-29 01:18:00,78.0,65.0,30.16,NE,45,7.0,12.0,64,0.00,,,0.00,Rainwise IP-100,2013-10-29 05:18:00,
2013-10-29 01:23:00,78.0,65.0,30.16,NE,45,9.8,13.0,64,0.00,,,0.00,Rainwise IP-100,2013-10-29 05:23:00,
2013-10-29 01:28:00,77.9,65.0,30.16,ENE,67,4.4,14.0,64,0.00,,,0.00,Rainwise IP-100,2013-10-29 05:28:00,
2013-10-29 01:33:00,77.9,65.0,30.15,NE,45,4.4,14.0,64,0.00,,,0.00,Rainwise IP-100,2013-10-29 05:33:00,
2013-10-29 01:38:00,77.9,65.0,30.15,NE,45,8.2,11.0,65,0.00,,,0.00,Rainwise IP-100,2013-10-29 05:38:00,
2013-10-29 01:43:00,77.8,65.0,30.16,NE,45,7.9,10.0,65,0.00,,,0.00,Rainwise IP-100,2013-10-29 05:43:00,
2013-10-29 01:48:00,77.8,65.0,30.16,NE,45,7.2,10.0,65,0.00,,,0.00,Rainwise IP-100,2013-10-29 05:48:00,
2013-10-29 01:54:00,77.8,65.0,30.15,ENE,67,6.3,12.0,65,0.00,,,0.00,Rainwise IP-100,2013-10-29 05:54:00,
2013-10-29 01:59:00,77.9,66.0,30.14,ENE,67,7.5,12.0,66,0.00,,,0.00,Rainwise IP-100,2013-10-29 05:59:00,
2013-10-29 02:04:00,77.8,65.0,30.15,ENE,67,7.2,12.0,66,0.00,,,0.00,Rainwise IP-100,2013-10-29 06:04:00,
2013-10-29 02:09:00,77.7,66.0,30.15,ENE,67,7.2,13.0,67,0.00,,,0.00,Rainwise IP-100,2013-10-29 06:09:00,
2013-10-29 02:14:00,77.7,66.0,30.15,ENE,67,7.9,13.0,67,0.00,,,0.00,Rainwise IP-100,2013-10-29 06:14:00,
2013-10-29 02:19:00,77.7,66.0,30.15,NE,45,8.9,12.0,67,0.00,,,0.00,Rainwise IP-100,2013-10-29 06:19:00,
2013-10-29 02:24:00,77.6,66.0,30.14,NNE,22,9.1,14.0,67,0.00,,,0.00,Rainwise IP-100,2013-10-29 06:24:00,
2013-10-29 02:30:00,77.6,65.0,30.14,NE,45,5.8,13.0,66,0.00,,,0.00,Rainwise IP-100,2013-10-29 06:30:00,
2013-10-29 02:35:00,77.6,65.0,30.14,NE,45,9.6,9.6,66,0.00,,,0.00,Rainwise IP-100,2013-10-29 06:35:00,
2013-10-29 02:40:00,77.7,65.0,30.14,ENE,67,5.4,13.0,66,0.00,,,0.00,Rainwise IP-100,2013-10-29 06:40:00,
2013-10-29 02:45:00,77.7,65.0,30.14,NNE,22,11.0,12.0,66,0.00,,,0.00,Rainwise IP-100,2013-10-29 06:45:00,
2013-10-29 02:50:00,77.6,66.0,30.14,ENE,67,6.8,13.0,67,0.00,,,0.00,Rainwise IP-100,2013-10-29 06:50:00,
2013-10-29 02:55:00,77.6,66.0,30.13,ENE,67,7.9,11.0,67,0.00,,,0.00,Rainwise IP-100,2013-10-29 06:55:00,
2013-10-29 03:00:00,77.5,66.0,30.13,East,90,4.9,10.0,67,0.00,,,0.00,Rainwise IP-100,2013-10-29 07:00:00,
2013-10-29 03:05:00,77.5,66.0,30.13,NE,45,11.0,12.0,67,0.00,,,0.00,Rainwise IP-100,2013-10-29 07:05:00,
2013-10-29 03:11:00,77.6,65.0,30.13,NE,45,4.2,12.0,66,0.00,,,0.00,Rainwise IP-100,2013-10-29 07:11:00,
2013-10-29 03:16:00,77.6,65.0,30.13,ENE,67,7.0,14.0,65,0.00,,,0.00,Rainwise IP-100,2013-10-29 07:16:00,
2013-10-29 03:21:00,77.5,65.0,30.12,NNE,22,12.1,13.0,66,0.00,,,0.00,Rainwise IP-100,2013-10-29 07:21:00,
2013-10-29 03:26:00,77.4,65.0,30.12,ENE,67,9.6,13.0,66,0.00,,,0.00,Rainwise IP-100,2013-10-29 07:26:00,
2013-10-29 03:31:00,77.5,65.0,30.13,NE,45,9.8,14.0,66,0.00,,,0.00,Rainwise IP-100,2013-10-29 07:31:00,
2013-10-29 03:36:00,77.6,65.0,30.13,ENE,67,7.7,14.0,66,0.00,,,0.00,Rainwise IP-100,2013-10-29 07:36:00,
2013-10-29 03:41:00,77.5,65.0,30.13,ENE,67,7.7,13.0,66,0.00,,,0.00,Rainwise IP-100,2013-10-29 07:41:00,
2013-10-29 03:47:00,77.6,65.0,30.13,NE,45,7.7,13.0,66,0.00,,,0.00,Rainwise IP-100,2013-10-29 07:47:00,
2013-10-29 03:48:00,77.5,65.0,30.12,ENE,67,13.3,13.3,66,0.00,,,0.00,Rainwise IP-100,2013-10-29 07:48:00,
2013-10-29 03:53:00,77.5,66.0,30.13,NNE,22,9.8,14.0,67,0.00,,,0.00,Rainwise IP-100,2013-10-29 07:53:00,
2013-10-29 03:58:00,77.4,65.0,30.13,NE,45,6.1,14.0,66,0.00,,,0.00,Rainwise IP-100,2013-10-29 07:58:00,
2013-10-29 04:03:00,77.3,65.0,30.13,NNE,22,3.7,12.0,66,0.00,,,0.00,Rainwise IP-100,2013-10-29 08:03:00,
2013-10-29 04:08:00,77.4,66.0,30.12,North,360,3.7,15.0,67,0.00,,,0.00,Rainwise IP-100,2013-10-29 08:08:00,
2013-10-29 04:13:00,77.3,66.0,30.13,ENE,67,8.4,14.0,67,0.00,,,0.00,Rainwise IP-100,2013-10-29 08:13:00,
2013-10-29 04:18:00,77.3,66.0,30.13,ENE,67,11.2,12.0,68,0.00,,,0.00,Rainwise IP-100,2013-10-29 08:18:00,
2013-10-29 04:24:00,77.3,66.0,30.13,NE,45,9.8,13.0,68,0.00,,,0.00,Rainwise IP-100,2013-10-29 08:24:00,
2013-10-29 04:29:00,77.3,66.0,30.13,NNE,22,6.3,14.0,69,0.00,,,0.00,Rainwise IP-100,2013-10-29 08:29:00,
2013-10-29 04:34:00,77.2,66.0,30.13,ENE,67,10.0,11.0,69,0.00,,,0.00,Rainwise IP-100,2013-10-29 08:34:00,
2013-10-29 04:39:00,77.2,66.0,30.14,ENE,67,6.5,13.0,69,0.00,,,0.00,Rainwise IP-100,2013-10-29 08:39:00,
2013-10-29 04:44:00,77.2,66.0,30.14,ENE,67,9.6,13.0,69,0.00,,,0.00,Rainwise IP-100,2013-10-29 08:44:00,
2013-10-29 04:49:00,77.1,66.0,30.13,NE,45,8.4,15.0,69,0.00,,,0.00,Rainwise IP-100,2013-10-29 08:49:00,
2013-10-29 04:54:00,77.1,66.0,30.12,ENE,67,6.3,14.0,69,0.00,,,0.00,Rainwise IP-100,2013-10-29 08:54:00,
2013-10-29 04:59:00,77.1,66.0,30.13,NNE,22,7.7,13.0,69,0.00,,,0.00,Rainwise IP-100,2013-10-29 08:59:00,
2013-10-29 05:05:00,77.1,66.0,30.13,NE,45,7.2,13.0,69,0.00,,,0.00,Rainwise IP-100,2013-10-29 09:05:00,
2013-10-29 05:10:00,77.1,66.0,30.13,NE,45,9.6,15.0,69,0.00,,,0.00,Rainwise IP-100,2013-10-29 09:10:00,
2013-10-29 05:15:00,77.1,66.0,30.13,NNE,22,9.8,12.0,69,0.00,,,0.00,Rainwise IP-100,2013-10-29 09:15:00,
2013-10-29 05:20:00,77.1,66.0,30.13,ENE,67,7.9,15.0,69,0.00,,,0.00,Rainwise IP-100,2013-10-29 09:20:00,
2013-10-29 05:25:00,77.1,66.0,30.13,NE,45,9.1,17.0,69,0.00,,,0.00,Rainwise IP-100,2013-10-29 09:25:00,
2013-10-29 05:30:00,77.0,66.0,30.13,NE,45,4.4,14.0,70,0.00,,,0.00,Rainwise IP-100,2013-10-29 09:30:00,
2013-10-29 05:35:00,77.1,66.0,30.14,NNE,22,7.0,14.0,70,0.00,,,0.00,Rainwise IP-100,2013-10-29 09:35:00,
2013-10-29 05:41:00,77.0,67.0,30.14,ENE,67,7.5,11.0,71,0.00,,,0.00,Rainwise IP-100,2013-10-29 09:41:00,
2013-10-29 05:46:00,77.0,67.0,30.15,ENE,67,11.4,13.0,71,0.00,,,0.00,Rainwise IP-100,2013-10-29 09:46:00,
2013-10-29 05:51:00,77.1,66.0,30.14,ENE,67,7.5,15.0,70,0.00,,,0.00,Rainwise IP-100,2013-10-29 09:51:00,
2013-10-29 05:56:00,77.1,66.0,30.14,NE,45,6.8,13.0,70,0.00,,,0.00,Rainwise IP-100,2013-10-29 09:56:00,
2013-10-29 06:01:00,77.1,66.0,30.14,NNE,22,7.0,11.0,70,0.00,,,0.00,Rainwise IP-100,2013-10-29 10:01:00,
2013-10-29 06:06:00,77.1,66.0,30.15,NNE,22,8.2,12.0,70,0.00,,,0.00,Rainwise IP-100,2013-10-29 10:06:00,
2013-10-29 06:11:00,77.1,66.0,30.15,NE,45,8.4,16.0,69,0.00,,,0.00,Rainwise IP-100,2013-10-29 10:11:00,
2013-10-29 06:16:00,77.1,66.0,30.15,NNE,22,9.1,14.0,69,0.00,,,0.00,Rainwise IP-100,2013-10-29 10:16:00,
2013-10-29 06:22:00,77.1,66.0,30.15,ENE,67,11.9,11.9,69,0.00,,,0.00,Rainwise IP-100,2013-10-29 10:22:00,
2013-10-29 06:27:00,77.2,66.0,30.15,NNE,22,5.8,16.0,68,0.00,,,0.00,Rainwise IP-100,2013-10-29 10:27:00,
2013-10-29 06:32:00,77.2,66.0,30.15,NNE,22,8.6,14.0,68,0.00,,,0.00,Rainwise IP-100,2013-10-29 10:32:00,
2013-10-29 06:37:00,77.2,66.0,30.15,NNE,22,4.9,12.0,68,0.00,,,0.00,Rainwise IP-100,2013-10-29 10:37:00,
2013-10-29 06:42:00,77.2,66.0,30.15,ENE,67,8.2,13.0,68,0.00,,,0.00,Rainwise IP-100,2013-10-29 10:42:00,
2013-10-29 06:47:00,77.2,66.0,30.16,NE,45,9.8,12.0,69,0.00,,,0.00,Rainwise IP-100,2013-10-29 10:47:00,
2013-10-29 06:52:00,77.2,67.0,30.16,North,360,5.1,15.0,70,0.00,,,0.00,Rainwise IP-100,2013-10-29 10:52:00,
2013-10-29 06:58:00,77.2,67.0,30.16,NE,45,9.3,12.0,70,0.00,,,0.00,Rainwise IP-100,2013-10-29 10:58:00,
2013-10-29 07:03:00,77.1,66.0,30.16,ENE,67,5.1,15.0,68,0.00,,,0.00,Rainwise IP-100,2013-10-29 11:03:00,
2013-10-29 07:08:00,77.2,66.0,30.16,ENE,67,9.8,16.0,68,0.00,,,0.00,Rainwise IP-100,2013-10-29 11:08:00,
2013-10-29 07:13:00,77.4,66.0,30.16,ENE,67,10.3,14.0,69,0.00,,,0.00,Rainwise IP-100,2013-10-29 11:13:00,
2013-10-29 07:18:00,77.3,67.0,30.16,NE,45,11.0,14.0,70,0.00,,,0.00,Rainwise IP-100,2013-10-29 11:18:00,
2013-10-29 07:23:00,77.4,67.0,30.17,NNE,22,11.7,15.0,70,0.00,,,0.00,Rainwise IP-100,2013-10-29 11:23:00,
2013-10-29 07:28:00,77.4,66.0,30.17,NNE,22,8.9,14.0,69,0.00,,,0.00,Rainwise IP-100,2013-10-29 11:28:00,
2013-10-29 07:33:00,77.4,67.0,30.17,ENE,67,6.1,12.0,70,0.00,,,0.00,Rainwise IP-100,2013-10-29 11:33:00,
2013-10-29 07:39:00,77.3,67.0,30.17,NE,45,5.1,13.0,70,0.00,,,0.00,Rainwise IP-100,2013-10-29 11:39:00,
2013-10-29 07:44:00,77.3,67.0,30.18,NE,45,12.6,14.0,70,0.00,,,0.00,Rainwise IP-100,2013-10-29 11:44:00,
2013-10-29 07:49:00,77.5,67.0,30.18,NE,45,13.8,14.0,70,0.00,,,0.00,Rainwise IP-100,2013-10-29 11:49:00,
2013-10-29 07:54:00,77.5,67.0,30.17,NE,45,10.0,15.0,70,0.00,,,0.00,Rainwise IP-100,2013-10-29 11:54:00,
2013-10-29 07:59:00,77.6,67.0,30.19,NE,45,7.5,13.0,70,0.00,,,0.00,Rainwise IP-100,2013-10-29 11:59:00,
2013-10-29 08:04:00,77.6,67.0,30.19,ENE,67,9.8,14.0,70,0.00,,,0.00,Rainwise IP-100,2013-10-29 12:04:00,
2013-10-29 08:09:00,77.7,67.0,30.19,ENE,67,6.8,12.0,70,0.00,,,0.00,Rainwise IP-100,2013-10-29 12:09:00,
2013-10-29 08:15:00,77.8,67.0,30.19,NE,45,10.5,13.0,70,0.00,,,0.00,Rainwise IP-100,2013-10-29 12:15:00,
2013-10-29 08:20:00,77.9,67.0,30.19,NNE,22,12.1,12.1,70,0.00,,,0.00,Rainwise IP-100,2013-10-29 12:20:00,
2013-10-29 08:25:00,78.0,67.0,30.19,ENE,67,7.9,15.0,70,0.00,,,0.00,Rainwise IP-100,2013-10-29 12:25:00,
2013-10-29 08:30:00,78.2,68.0,30.19,NE,45,15.6,15.6,70,0.00,,,0.00,Rainwise IP-100,2013-10-29 12:30:00,
2013-10-29 08:35:00,78.5,67.0,30.19,North,360,6.1,17.0,69,0.00,,,0.00,Rainwise IP-100,2013-10-29 12:35:00,
2013-10-29 08:40:00,78.7,67.0,30.19,NE,45,11.0,14.0,69,0.00,,,0.00,Rainwise IP-100,2013-10-29 12:40:00,
2013-10-29 08:45:00,78.9,67.0,30.19,NNE,22,10.5,13.0,68,0.00,,,0.00,Rainwise IP-100,2013-10-29 12:45:00,
2013-10-29 08:50:00,79.0,67.0,30.19,NE,45,11.0,16.0,68,0.00,,,0.00,Rainwise IP-100,2013-10-29 12:50:00,
2013-10-29 08:56:00,79.0,68.0,30.19,NNE,22,8.2,15.0,69,0.00,,,0.00,Rainwise IP-100,2013-10-29 12:56:00,
2013-10-29 09:01:00,79.2,68.0,30.20,NE,45,13.8,16.0,68,0.00,,,0.00,Rainwise IP-100,2013-10-29 13:01:00,
2013-10-29 09:06:00,79.5,67.0,30.20,NE,45,11.0,16.0,67,0.00,,,0.00,Rainwise IP-100,2013-10-29 13:06:00,
2013-10-29 09:11:00,79.6,66.0,30.20,ENE,67,8.2,16.0,65,0.00,,,0.00,Rainwise IP-100,2013-10-29 13:11:00,
2013-10-29 09:16:00,79.8,66.0,30.19,NE,45,12.1,15.0,65,0.00,,,0.00,Rainwise IP-100,2013-10-29 13:16:00,
2013-10-29 09:21:00,80.1,67.0,30.20,ENE,67,7.5,17.0,65,0.00,,,0.00,Rainwise IP-100,2013-10-29 13:21:00,
2013-10-29 09:26:00,80.2,67.0,30.20,NNE,22,10.0,18.0,65,0.00,,,0.00,Rainwise IP-100,2013-10-29 13:26:00,
2013-10-29 09:32:00,80.3,67.0,30.20,ENE,67,12.8,18.0,65,0.00,,,0.00,Rainwise IP-100,2013-10-29 13:32:00,
2013-10-29 09:37:00,80.7,67.0,30.21,ENE,67,8.9,17.0,64,0.00,,,0.00,Rainwise IP-100,2013-10-29 13:37:00,
2013-10-29 09:42:00,80.9,67.0,30.20,NNE,22,9.6,15.0,64,0.00,,,0.00,Rainwise IP-100,2013-10-29 13:42:00,
2013-10-29 09:47:00,81.0,67.0,30.21,NNE,22,17.0,20.0,64,0.00,,,0.00,Rainwise IP-100,2013-10-29 13:47:00,
2013-10-29 09:52:00,81.2,68.0,30.20,ENE,67,7.2,18.0,64,0.00,,,0.00,Rainwise IP-100,2013-10-29 13:52:00,
2013-10-29 09:57:00,81.4,68.0,30.21,NNE,22,13.1,18.0,64,0.00,,,0.00,Rainwise IP-100,2013-10-29 13:57:00,
2013-10-29 10:02:00,81.5,68.0,30.20,NE,45,12.1,17.0,64,0.00,,,0.00,Rainwise IP-100,2013-10-29 14:02:00,
2013-10-29 10:07:00,81.4,67.0,30.20,NNE,22,12.1,16.0,63,0.00,,,0.00,Rainwise IP-100,2013-10-29 14:07:00,
2013-10-29 10:13:00,81.5,68.0,30.21,NNE,22,6.1,15.0,63,0.00,,,0.00,Rainwise IP-100,2013-10-29 14:13:00,
2013-10-29 10:18:00,82.0,68.0,30.20,NE,45,12.1,17.0,63,0.00,,,0.00,Rainwise IP-100,2013-10-29 14:18:00,
2013-10-29 10:23:00,82.2,68.0,30.20,NNE,22,11.0,19.0,63,0.00,,,0.00,Rainwise IP-100,2013-10-29 14:23:00,
2013-10-29 10:28:00,81.8,68.0,30.21,ENE,67,16.6,17.0,64,0.00,,,0.00,Rainwise IP-100,2013-10-29 14:28:00,
2013-10-29 10:33:00,81.4,69.0,30.20,NE,45,16.1,17.0,66,0.00,,,0.00,Rainwise IP-100,2013-10-29 14:33:00,
2013-10-29 10:38:00,81.5,69.0,30.20,ENE,67,13.8,17.0,66,0.00,,,0.00,Rainwise IP-100,2013-10-29 14:38:00,
2013-10-29 10:43:00,81.8,69.0,30.20,ENE,67,13.3,20.0,65,0.00,,,0.00,Rainwise IP-100,2013-10-29 14:43:00,
2013-10-29 10:49:00,81.9,69.0,30.21,NNE,22,12.1,22.0,65,0.00,,,0.00,Rainwise IP-100,2013-10-29 14:49:00,
2013-10-29 10:54:00,81.9,68.0,30.21,ENE,67,11.0,18.0,64,0.00,,,0.00,Rainwise IP-100,2013-10-29 14:54:00,
2013-10-29 10:59:00,81.7,68.0,30.21,NE,45,11.2,20.0,63,0.00,,,0.00,Rainwise IP-100,2013-10-29 14:59:00,
2013-10-29 11:04:00,81.6,68.0,30.21,ENE,67,18.0,20.0,63,0.00,,,0.00,Rainwise IP-100,2013-10-29 15:04:00,
2013-10-29 11:09:00,81.9,68.0,30.20,NE,45,18.9,21.0,64,0.00,,,0.00,Rainwise IP-100,2013-10-29 15:09:00,
2013-10-29 11:14:00,81.9,68.0,30.20,ENE,67,10.7,20.0,64,0.00,,,0.00,Rainwise IP-100,2013-10-29 15:14:00,
2013-10-29 11:19:00,81.7,68.0,30.20,NNE,22,13.8,18.0,63,0.00,,,0.00,Rainwise IP-100,2013-10-29 15:19:00,
2013-10-29 11:24:00,82.0,68.0,30.20,ENE,67,12.6,24.0,63,0.00,,,0.00,Rainwise IP-100,2013-10-29 15:24:00,
2013-10-29 11:30:00,81.9,68.0,30.21,NNE,22,13.8,18.0,63,0.00,,,0.00,Rainwise IP-100,2013-10-29 15:30:00,
2013-10-29 11:35:00,82.0,68.0,30.20,NE,45,9.8,18.0,63,0.00,,,0.00,Rainwise IP-100,2013-10-29 15:35:00,
2013-10-29 11:40:00,82.2,69.0,30.20,NNE,22,6.8,18.0,64,0.00,,,0.00,Rainwise IP-100,2013-10-29 15:40:00,
2013-10-29 11:45:00,82.4,69.0,30.20,ENE,67,12.6,18.0,63,0.00,,,0.00,Rainwise IP-100,2013-10-29 15:45:00,
2013-10-29 11:50:00,82.4,69.0,30.20,ENE,67,9.1,17.0,64,0.00,,,0.00,Rainwise IP-100,2013-10-29 15:50:00,
2013-10-29 11:55:00,82.3,69.0,30.20,ENE,67,9.3,19.0,65,0.00,,,0.00,Rainwise IP-100,2013-10-29 15:55:00,
2013-10-29 12:00:00,82.3,69.0,30.20,NE,45,16.8,20.0,64,0.00,,,0.00,Rainwise IP-100,2013-10-29 16:00:00,
2013-10-29 12:06:00,82.2,69.0,30.20,ENE,67,16.6,20.0,64,0.00,,,0.00,Rainwise IP-100,2013-10-29 16:06:00,
2013-10-29 12:11:00,81.8,68.0,30.19,ENE,67,11.7,19.0,64,0.00,,,0.00,Rainwise IP-100,2013-10-29 16:11:00,
2013-10-29 12:16:00,81.9,69.0,30.19,NE,45,14.9,22.0,65,0.00,,,0.00,Rainwise IP-100,2013-10-29 16:16:00,
2013-10-29 12:21:00,82.3,69.0,30.19,NE,45,8.4,21.0,65,0.00,,,0.00,Rainwise IP-100,2013-10-29 16:21:00,
2013-10-29 12:26:00,82.3,69.0,30.19,ENE,67,10.0,20.0,66,0.00,,,0.00,Rainwise IP-100,2013-10-29 16:26:00,
2013-10-29 12:31:00,82.3,69.0,30.19,NE,45,11.7,20.0,66,0.00,,,0.00,Rainwise IP-100,2013-10-29 16:31:00,
2013-10-29 12:36:00,82.3,69.0,30.19,NE,45,9.8,17.0,65,0.00,,,0.00,Rainwise IP-100,2013-10-29 16:36:00,
2013-10-29 12:41:00,82.4,69.0,30.19,NE,45,8.2,18.0,65,0.00,,,0.00,Rainwise IP-100,2013-10-29 16:41:00,
2013-10-29 12:47:00,82.2,69.0,30.19,ENE,67,9.3,19.0,65,0.00,,,0.00,Rainwise IP-100,2013-10-29 16:47:00,
2013-10-29 12:52:00,81.7,69.0,30.19,NE,45,10.5,17.0,65,0.00,,,0.00,Rainwise IP-100,2013-10-29 16:52:00,
2013-10-29 12:57:00,81.9,69.0,30.19,NE,45,14.0,19.0,66,0.00,,,0.00,Rainwise IP-100,2013-10-29 16:57:00,
2013-10-29 13:02:00,82.0,69.0,30.19,ENE,67,8.6,18.0,66,0.00,,,0.00,Rainwise IP-100,2013-10-29 17:02:00,
2013-10-29 13:07:00,82.1,69.0,30.18,NNE,22,17.0,18.0,65,0.00,,,0.00,Rainwise IP-100,2013-10-29 17:07:00,
2013-10-29 13:12:00,82.2,69.0,30.18,NE,45,12.4,21.0,65,0.00,,,0.00,Rainwise IP-100,2013-10-29 17:12:00,
2013-10-29 13:17:00,82.1,68.0,30.17,NNE,22,12.1,19.0,64,0.00,,,0.00,Rainwise IP-100,2013-10-29 17:17:00,
2013-10-29 13:23:00,82.0,68.0,30.16,ENE,67,12.4,19.0,64,0.00,,,0.00,Rainwise IP-100,2013-10-29 17:23:00,
2013-10-29 13:28:00,82.0,68.0,30.17,NE,45,12.6,21.0,64,0.00,,,0.00,Rainwise IP-100,2013-10-29 17:28:00,
2013-10-29 13:33:00,82.1,68.0,30.16,ENE,67,14.2,19.0,64,0.00,,,0.00,Rainwise IP-100,2013-10-29 17:33:00,
2013-10-29 13:38:00,82.0,68.0,30.16,ENE,67,6.3,17.0,64,0.00,,,0.00,Rainwise IP-100,2013-10-29 17:38:00,
2013-10-29 13:43:00,82.3,69.0,30.16,ENE,67,7.9,20.0,64,0.00,,,0.00,Rainwise IP-100,2013-10-29 17:43:00,
2013-10-29 13:48:00,82.1,68.0,30.16,NNE,22,8.6,21.0,64,0.00,,,0.00,Rainwise IP-100,2013-10-29 17:48:00,
2013-10-29 13:53:00,81.9,69.0,30.16,ENE,67,12.4,18.0,65,0.00,,,0.00,Rainwise IP-100,2013-10-29 17:53:00,
2013-10-29 13:58:00,81.9,69.0,30.14,ENE,67,7.0,19.0,65,0.00,,,0.00,Rainwise IP-100,2013-10-29 17:58:00,
2013-10-29 14:04:00,81.9,69.0,30.15,ENE,67,13.3,16.0,65,0.00,,,0.00,Rainwise IP-100,2013-10-29 18:04:00,
2013-10-29 14:09:00,81.7,69.0,30.14,ENE,67,12.6,18.0,65,0.00,,,0.00,Rainwise IP-100,2013-10-29 18:09:00,
2013-10-29 14:14:00,81.8,69.0,30.14,ENE,67,4.7,19.0,65,0.00,,,0.00,Rainwise IP-100,2013-10-29 18:14:00,
2013-10-29 14:19:00,81.8,68.0,30.14,ENE,67,10.5,18.0,64,0.00,,,0.00,Rainwise IP-100,2013-10-29 18:19:00,
2013-10-29 14:24:00,81.9,68.0,30.14,NE,45,17.7,22.0,64,0.00,,,0.00,Rainwise IP-100,2013-10-29 18:24:00,
2013-10-29 14:29:00,81.8,69.0,30.14,ENE,67,7.9,20.0,65,0.00,,,0.00,Rainwise IP-100,2013-10-29 18:29:00,
2013-10-29 14:34:00,81.6,69.0,30.14,ENE,67,11.4,18.0,65,0.00,,,0.00,Rainwise IP-100,2013-10-29 18:34:00,
2013-10-29 14:40:00,81.4,68.0,30.14,ENE,67,12.6,18.0,65,0.00,,,0.00,Rainwise IP-100,2013-10-29 18:40:00,
2013-10-29 14:45:00,81.3,68.0,30.14,NE,45,10.7,19.0,65,0.00,,,0.00,Rainwise IP-100,2013-10-29 18:45:00,
2013-10-29 14:50:00,81.5,69.0,30.14,ENE,67,8.4,17.0,65,0.00,,,0.00,Rainwise IP-100,2013-10-29 18:50:00,
2013-10-29 14:55:00,81.7,68.0,30.14,NNE,22,11.2,20.0,64,0.00,,,0.00,Rainwise IP-100,2013-10-29 18:55:00,
2013-10-29 15:00:00,81.6,68.0,30.13,ENE,67,11.9,20.0,64,0.00,,,0.00,Rainwise IP-100,2013-10-29 19:00:00,
2013-10-29 15:05:00,81.7,68.0,30.14,NNE,22,13.8,20.0,63,0.00,,,0.00,Rainwise IP-100,2013-10-29 19:05:00,
2013-10-29 15:10:00,81.8,68.0,30.14,NE,45,9.6,17.0,63,0.00,,,0.00,Rainwise IP-100,2013-10-29 19:10:00,
2013-10-29 15:15:00,81.7,68.0,30.14,ENE,67,13.5,19.0,64,0.00,,,0.00,Rainwise IP-100,2013-10-29 19:15:00,
2013-10-29 15:21:00,81.6,68.0,30.14,NE,45,12.6,19.0,64,0.00,,,0.00,Rainwise IP-100,2013-10-29 19:21:00,
2013-10-29 15:26:00,81.5,68.0,30.14,ENE,67,11.4,17.0,63,0.00,,,0.00,Rainwise IP-100,2013-10-29 19:26:00,
2013-10-29 15:31:00,81.6,67.0,30.14,NE,45,15.9,18.0,62,0.00,,,0.00,Rainwise IP-100,2013-10-29 19:31:00,
2013-10-29 15:36:00,81.7,66.0,30.14,ENE,67,8.4,18.0,61,0.00,,,0.00,Rainwise IP-100,2013-10-29 19:36:00,
2013-10-29 15:41:00,81.5,66.0,30.14,NNE,22,11.7,18.0,60,0.00,,,0.00,Rainwise IP-100,2013-10-29 19:41:00,
2013-10-29 15:46:00,81.5,66.0,30.13,NE,45,11.7,18.0,60,0.00,,,0.00,Rainwise IP-100,2013-10-29 19:46:00,
2013-10-29 15:51:00,81.7,66.0,30.14,NNE,22,15.2,18.0,61,0.00,,,0.00,Rainwise IP-100,2013-10-29 19:51:00,
2013-10-29 15:57:00,81.7,67.0,30.14,NNE,22,8.2,18.0,62,0.00,,,0.00,Rainwise IP-100,2013-10-29 19:57:00,
2013-10-29 16:02:00,81.6,68.0,30.14,NE,45,12.8,18.0,63,0.00,,,0.00,Rainwise IP-100,2013-10-29 20:02:00,
2013-10-29 16:07:00,81.4,67.0,30.14,ENE,67,11.0,18.0,63,0.00,,,0.00,Rainwise IP-100,2013-10-29 20:07:00,
2013-10-29 16:12:00,81.5,68.0,30.13,ENE,67,15.4,17.0,63,0.00,,,0.00,Rainwise IP-100,2013-10-29 20:12:00,
2013-10-29 16:17:00,81.4,67.0,30.14,NE,45,14.9,21.0,62,0.00,,,0.00,Rainwise IP-100,2013-10-29 20:17:00,
2013-10-29 16:22:00,81.4,67.0,30.14,ENE,67,9.3,19.0,62,0.00,,,0.00,Rainwise IP-100,2013-10-29 20:22:00,
2013-10-29 16:27:00,81.4,67.0,30.14,NNE,22,11.2,16.0,63,0.00,,,0.00,Rainwise IP-100,2013-10-29 20:27:00,
2013-10-29 16:32:00,81.3,68.0,30.14,NNE,22,14.7,19.0,64,0.00,,,0.00,Rainwise IP-100,2013-10-29 20:32:00,
2013-10-29 16:38:00,81.4,68.0,30.13,NE,45,7.2,16.0,64,0.00,,,0.00,Rainwise IP-100,2013-10-29 20:38:00,
2013-10-29 16:43:00,81.5,68.0,30.14,ENE,67,12.6,18.0,64,0.00,,,0.00,Rainwise IP-100,2013-10-29 20:43:00,
2013-10-29 16:48:00,81.4,67.0,30.13,ENE,67,12.6,18.0,63,0.00,,,0.00,Rainwise IP-100,2013-10-29 20:48:00,
2013-10-29 16:53:00,81.1,67.0,30.14,NE,45,14.5,17.0,63,0.00,,,0.00,Rainwise IP-100,2013-10-29 20:53:00,
2013-10-29 16:58:00,80.8,67.0,30.14,NE,45,13.1,18.0,63,0.00,,,0.00,Rainwise IP-100,2013-10-29 20:58:00,
2013-10-29 17:03:00,80.7,67.0,30.14,NE,45,13.3,17.0,64,0.00,,,0.00,Rainwise IP-100,2013-10-29 21:03:00,
2013-10-29 17:08:00,80.8,68.0,30.14,NE,45,6.5,17.0,65,0.00,,,0.00,Rainwise IP-100,2013-10-29 21:08:00,
2013-10-29 17:14:00,80.8,67.0,30.14,ENE,67,14.9,19.0,64,0.00,,,0.00,Rainwise IP-100,2013-10-29 21:14:00,
2013-10-29 17:19:00,80.8,67.0,30.13,NE,45,19.8,21.0,64,0.00,,,0.00,Rainwise IP-100,2013-10-29 21:19:00,
2013-10-29 17:24:00,80.8,67.0,30.14,NE,45,11.2,21.0,64,0.00,,,0.00,Rainwise IP-100,2013-10-29 21:24:00,
2013-10-29 17:29:00,80.7,67.0,30.14,ENE,67,12.1,19.0,64,0.00,,,0.00,Rainwise IP-100,2013-10-29 21:29:00,
2013-10-29 17:34:00,80.6,67.0,30.14,NE,45,11.7,20.0,64,0.00,,,0.00,Rainwise IP-100,2013-10-29 21:34:00,
2013-10-29 17:39:00,80.5,67.0,30.15,NNE,22,11.2,17.0,64,0.00,,,0.00,Rainwise IP-100,2013-10-29 21:39:00,
2013-10-29 17:44:00,80.5,67.0,30.15,NE,45,11.7,17.0,64,0.00,,,0.00,Rainwise IP-100,2013-10-29 21:44:00,
2013-10-29 17:49:00,80.5,67.0,30.15,NE,45,11.4,18.0,65,0.00,,,0.00,Rainwise IP-100,2013-10-29 21:49:00,
2013-10-29 17:55:00,80.4,67.0,30.15,NNE,22,10.7,17.0,65,0.00,,,0.00,Rainwise IP-100,2013-10-29 21:55:00,
2013-10-29 18:00:00,80.2,67.0,30.15,ENE,67,11.7,18.0,65,0.00,,,0.00,Rainwise IP-100,2013-10-29 22:00:00,
2013-10-29 18:05:00,80.0,67.0,30.15,NE,45,9.3,20.0,65,0.00,,,0.00,Rainwise IP-100,2013-10-29 22:05:00,
2013-10-29 18:10:00,79.9,67.0,30.15,NNE,22,11.4,20.0,65,0.00,,,0.00,Rainwise IP-100,2013-10-29 22:10:00,
2013-10-29 18:15:00,79.8,67.0,30.16,NNE,22,13.5,20.0,66,0.00,,,0.00,Rainwise IP-100,2013-10-29 22:15:00,
2013-10-29 18:20:00,79.7,67.0,30.16,NNE,22,7.2,19.0,66,0.00,,,0.00,Rainwise IP-100,2013-10-29 22:20:00,
2013-10-29 18:25:00,79.7,66.0,30.16,ENE,67,11.0,16.0,65,0.00,,,0.00,Rainwise IP-100,2013-10-29 22:25:00,
2013-10-29 18:31:00,79.6,67.0,30.16,NNE,22,9.1,16.0,66,0.00,,,0.00,Rainwise IP-100,2013-10-29 22:31:00,
2013-10-29 18:36:00,79.5,67.0,30.16,NE,45,14.5,14.5,67,0.00,,,0.00,Rainwise IP-100,2013-10-29 22:36:00,
2013-10-29 18:41:00,79.5,67.0,30.16,ENE,67,6.5,18.0,67,0.00,,,0.00,Rainwise IP-100,2013-10-29 22:41:00,
2013-10-29 18:46:00,79.5,67.0,30.16,NE,45,12.8,18.0,66,0.00,,,0.00,Rainwise IP-100,2013-10-29 22:46:00,
2013-10-29 18:51:00,79.4,67.0,30.16,NNE,22,10.5,18.0,66,0.00,,,0.00,Rainwise IP-100,2013-10-29 22:51:00,
2013-10-29 18:56:00,79.3,67.0,30.16,ENE,67,8.2,16.0,67,0.00,,,0.00,Rainwise IP-100,2013-10-29 22:56:00,
2013-10-29 19:01:00,79.3,68.0,30.16,ENE,67,14.0,17.0,68,0.00,,,0.00,Rainwise IP-100,2013-10-29 23:01:00,
2013-10-29 19:06:00,79.3,67.0,30.17,NE,45,9.8,16.0,67,0.00,,,0.00,Rainwise IP-100,2013-10-29 23:06:00,
2013-10-29 19:12:00,79.3,67.0,30.17,ENE,67,8.4,17.0,67,0.00,,,0.00,Rainwise IP-100,2013-10-29 23:12:00,
2013-10-29 19:17:00,79.2,67.0,30.17,ENE,67,16.8,17.0,67,0.00,,,0.00,Rainwise IP-100,2013-10-29 23:17:00,
2013-10-29 19:22:00,79.2,67.0,30.16,NE,45,18.7,18.7,67,0.00,,,0.00,Rainwise IP-100,2013-10-29 23:22:00,
2013-10-29 19:27:00,79.2,67.0,30.17,ENE,67,10.0,19.0,66,0.00,,,0.00,Rainwise IP-100,2013-10-29 23:27:00,
2013-10-29 19:32:00,79.2,67.0,30.17,ENE,67,14.0,17.0,67,0.00,,,0.00,Rainwise IP-100,2013-10-29 23:32:00,
2013-10-29 19:37:00,79.2,67.0,30.17,NE,45,11.4,19.0,66,0.00,,,0.00,Rainwise IP-100,2013-10-29 23:37:00,
2013-10-29 19:42:00,79.3,67.0,30.16,ENE,67,14.0,18.0,66,0.00,,,0.00,Rainwise IP-100,2013-10-29 23:42:00,
2013-10-29 19:48:00,79.2,67.0,30.17,NE,45,10.3,23.0,67,0.00,,,0.00,Rainwise IP-100,2013-10-29 23:48:00,
2013-10-29 19:53:00,79.2,68.0,30.18,NE,45,18.2,18.2,68,0.00,,,0.00,Rainwise IP-100,2013-10-29 23:53:00,
2013-10-29 19:58:00,79.1,67.0,30.18,ENE,67,11.0,20.0,67,0.00,,,0.00,Rainwise IP-100,2013-10-29 23:58:00,
2013-10-29 20:03:00,79.2,67.0,30.18,NE,45,10.3,18.0,66,0.00,,,0.00,Rainwise IP-100,2013-10-30 00:03:00,
2013-10-29 20:08:00,79.1,67.0,30.18,ENE,67,17.3,18.0,68,0.00,,,0.00,Rainwise IP-100,2013-10-30 00:08:00,
2013-10-29 20:13:00,79.1,67.0,30.18,ENE,67,10.7,21.0,67,0.00,,,0.00,Rainwise IP-100,2013-10-30 00:13:00,
2013-10-29 20:18:00,79.2,67.0,30.19,ENE,67,13.5,17.0,67,0.00,,,0.00,Rainwise IP-100,2013-10-30 00:18:00,
2013-10-29 20:23:00,79.2,67.0,30.19,ENE,67,11.9,21.0,67,0.00,,,0.00,Rainwise IP-100,2013-10-30 00:23:00,
2013-10-29 20:29:00,79.3,67.0,30.18,ENE,67,7.2,15.0,67,0.00,,,0.00,Rainwise IP-100,2013-10-30 00:29:00,
2013-10-29 20:34:00,79.3,68.0,30.19,ENE,67,10.5,18.0,68,0.00,,,0.00,Rainwise IP-100,2013-10-30 00:34:00,
2013-10-29 20:39:00,79.2,68.0,30.19,NE,45,13.8,18.0,68,0.00,,,0.00,Rainwise IP-100,2013-10-30 00:39:00,
2013-10-29 20:44:00,79.1,67.0,30.19,ENE,67,11.9,19.0,67,0.00,,,0.00,Rainwise IP-100,2013-10-30 00:44:00,
2013-10-29 20:49:00,79.2,67.0,30.19,ENE,67,8.4,18.0,67,0.00,,,0.00,Rainwise IP-100,2013-10-30 00:49:00,
2013-10-29 20:54:00,79.2,68.0,30.19,ENE,67,14.2,18.0,68,0.00,,,0.00,Rainwise IP-100,2013-10-30 00:54:00,
2013-10-29 20:59:00,79.1,68.0,30.19,NE,45,13.8,19.0,69,0.00,,,0.00,Rainwise IP-100,2013-10-30 00:59:00,
2013-10-29 21:05:00,79.0,68.0,30.19,NE,45,18.9,20.0,69,0.00,,,0.00,Rainwise IP-100,2013-10-30 01:05:00,
2013-10-29 21:10:00,78.9,68.0,30.19,ENE,67,21.0,21.0,69,0.00,,,0.00,Rainwise IP-100,2013-10-30 01:10:00,
2013-10-29 21:15:00,79.0,67.0,30.20,ENE,67,9.8,22.0,68,0.00,,,0.00,Rainwise IP-100,2013-10-30 01:15:00,
2013-10-29 21:20:00,79.0,67.0,30.19,ENE,67,9.8,21.0,68,0.00,,,0.00,Rainwise IP-100,2013-10-30 01:20:00,
2013-10-29 21:25:00,79.0,68.0,30.20,ENE,67,11.9,19.0,69,0.00,,,0.00,Rainwise IP-100,2013-10-30 01:25:00,
2013-10-29 21:30:00,78.9,67.0,30.20,ENE,67,18.2,21.0,68,0.00,,,0.00,Rainwise IP-100,2013-10-30 01:30:00,
2013-10-29 21:35:00,78.9,67.0,30.20,ENE,67,13.3,21.0,68,0.00,,,0.00,Rainwise IP-100,2013-10-30 01:35:00,
2013-10-29 21:40:00,78.9,67.0,30.20,ENE,67,13.5,21.0,68,0.00,,,0.00,Rainwise IP-100,2013-10-30 01:40:00,
2013-10-29 21:46:00,78.9,68.0,30.19,ENE,67,10.5,21.0,69,0.00,,,0.00,Rainwise IP-100,2013-10-30 01:46:00,
2013-10-29 21:51:00,78.9,67.0,30.19,NE,45,14.2,23.0,68,0.00,,,0.00,Rainwise IP-100,2013-10-30 01:51:00,
2013-10-29 21:56:00,78.8,67.0,30.20,NNE,22,8.9,23.0,68,0.00,,,0.00,Rainwise IP-100,2013-10-30 01:56:00,
2013-10-29 22:01:00,78.8,67.0,30.20,ENE,67,11.7,19.0,68,0.00,,,0.00,Rainwise IP-100,2013-10-30 02:01:00,
2013-10-29 22:06:00,78.8,67.0,30.20,NNE,22,14.2,22.0,68,0.00,,,0.00,Rainwise IP-100,2013-10-30 02:06:00,
2013-10-29 22:11:00,78.8,67.0,30.20,ENE,67,14.9,23.0,68,0.00,,,0.00,Rainwise IP-100,2013-10-30 02:11:00,
2013-10-29 22:16:00,78.8,67.0,30.20,NE,45,14.7,21.0,69,0.00,,,0.00,Rainwise IP-100,2013-10-30 02:16:00,
2013-10-29 22:22:00,78.7,67.0,30.20,ENE,67,13.5,22.0,69,0.00,,,0.00,Rainwise IP-100,2013-10-30 02:22:00,
2013-10-29 22:27:00,78.7,67.0,30.19,ENE,67,9.8,19.0,69,0.00,,,0.00,Rainwise IP-100,2013-10-30 02:27:00,
2013-10-29 22:32:00,78.8,67.0,30.20,ESE,112,11.2,18.0,68,0.00,,,0.00,Rainwise IP-100,2013-10-30 02:32:00,
2013-10-29 22:37:00,78.7,67.0,30.20,NE,45,14.0,22.0,68,0.00,,,0.00,Rainwise IP-100,2013-10-30 02:37:00,
2013-10-29 22:42:00,78.7,67.0,30.20,ENE,67,6.3,21.0,68,0.00,,,0.00,Rainwise IP-100,2013-10-30 02:42:00,
2013-10-29 22:47:00,78.7,67.0,30.21,NE,45,10.7,20.0,68,0.00,,,0.00,Rainwise IP-100,2013-10-30 02:47:00,
2013-10-29 22:52:00,78.7,66.0,30.20,ENE,67,16.6,21.0,67,0.00,,,0.00,Rainwise IP-100,2013-10-30 02:52:00,
2013-10-29 22:57:00,78.7,66.0,30.20,ENE,67,12.1,18.0,67,0.00,,,0.00,Rainwise IP-100,2013-10-30 02:57:00,
2013-10-29 23:03:00,78.7,66.0,30.19,ENE,67,11.7,22.0,67,0.00,,,0.00,Rainwise IP-100,2013-10-30 03:03:00,
2013-10-29 23:08:00,78.7,66.0,30.20,ENE,67,9.3,22.0,67,0.00,,,0.00,Rainwise IP-100,2013-10-30 03:08:00,
2013-10-29 23:13:00,78.6,66.0,30.20,ENE,67,7.5,25.0,67,0.00,,,0.00,Rainwise IP-100,2013-10-30 03:13:00,
2013-10-29 23:18:00,78.6,66.0,30.20,NNE,22,10.7,19.0,67,0.00,,,0.00,Rainwise IP-100,2013-10-30 03:18:00,
2013-10-29 23:23:00,78.7,66.0,30.20,ENE,67,14.7,19.0,67,0.00,,,0.00,Rainwise IP-100,2013-10-30 03:23:00,
2013-10-29 23:28:00,78.7,67.0,30.20,ENE,67,7.2,19.0,68,0.00,,,0.00,Rainwise IP-100,2013-10-30 03:28:00,
2013-10-29 23:33:00,78.6,67.0,30.20,East,90,11.2,21.0,68,0.00,,,0.00,Rainwise IP-100,2013-10-30 03:33:00,
2013-10-29 23:39:00,78.6,66.0,30.20,ENE,67,15.4,20.0,67,0.00,,,0.00,Rainwise IP-100,2013-10-30 03:39:00,
2013-10-29 23:44:00,78.6,67.0,30.20,East,90,13.1,24.0,68,0.00,,,0.00,Rainwise IP-100,2013-10-30 03:44:00,
2013-10-29 23:49:00,78.5,67.0,30.20,ENE,67,5.6,24.0,68,0.00,,,0.00,Rainwise IP-100,2013-10-30 03:49:00,
2013-10-29 23:54:00,78.5,67.0,30.19,ENE,67,11.9,18.0,68,0.00,,,0.00,Rainwise IP-100,2013-10-30 03:54:00,
2013-10-29 23:59:00,78.5,67.0,30.19,East,90,9.6,20.0,68,0.00,,,0.00,Rainwise IP-100,2013-10-30 03:59:00,